Tracking 19280 objects as of 14-Nov-2018
HD Live streaming from Space Station
objects crossing your sky now

OSIRIS-3U

Track OSIRIS-3U now!
10-day predictions
OSIRIS-3U is classified as:


NORAD ID: 43027
Int'l Code: 1998-067NL
Perigee: 345.5 km
Apogee: 352.5 km
Inclination: 51.6 °
Period: 91.4 minutes
Semi major axis: 6720 km
RCS: Unknown
Launch date: November 20, 1998
Source: United States (US)
Launch site: TYURATAM MISSILE AND SPACE COMPLEX (TTMTR)

Uplink (MHz):
Downlink (MHz): 437.505
Beacon (MHz):
Mode: 9k6-38k4 GMSK
Call sign:
Status: Inactive

aabbcc
Your satellite tracking list
Your tracking list is empty




NASA's NSSDC Master Catalog

Two Line Element Set (TLE):
1 43027U 98067NL  18317.50236813  .00064666  00000-0  40854-3 0  9996
2 43027  51.6367 329.4510 0005258  30.4679 329.6625 15.75971440 55869
Source of the keplerian elements: AFSPC